C/2019 E3 ( ATLAS )

Japanese version
Home page
Updated on March 23, 2019

---------------------------------------------------------------------

* Profile

Discovery Date March 5, 2019
Magnitude 18.4 mag
Discoverer Asteroid Terrestrial-Impact Last Alert System (ATLAS) search program

* Orbital Elements

Epoch 2023 Dec. 2.0 TT = JDT 2460280.5
T 2023 Nov. 16.82444 TT                                 MPCW
q  10.3513515            (2000.0)            P               Q
z  +0.0015810      Peri.  280.43575     +0.15392547     +0.96265621
 +/-0.0023053      Node   347.06216     +0.26162534     -0.25705971
e   0.9836343      Incl.   84.10651     -0.95281642     +0.08493134
From 43 observations 2019 Mar. 5-21, mean residual 0".3.

* Magnitudes Graph

        m1 = 2.5 + 5 log d + 10.0 log r

---------------------------------------------------------------------

The orbital elements are published on M.P.E.C. 2019-F54.
The magnitudes graphs are made with Comet for Windows.

---------------------------------------------------------------------

Copyright(C) Seiichi Yoshida (comet@aerith.net). All rights reserved.